Tracking 19638 objects as of 22-Apr-2019
HD Live streaming from Space Station
objects crossing your sky now

FLOCK 3R 16

Track FLOCK 3R 16 now!
10-day predictions
FLOCK 3R 16 is classified as:


NORAD ID: 43735
Int'l Code: 2018-096S
Perigee: 476.2 km
Apogee: 506.6 km
Inclination: 97.5 °
Period: 94.3 minutes
Semi major axis: 6862 km
RCS: Unknown
Launch date: November 29, 2018
Source: United States (US)
Launch site: SRIHARIKOTA (SRI)
aabbcc
Your satellite tracking list
Your tracking list is empty




NASA's NSSDC Master Catalog

Two Line Element Set (TLE):
1 43735U 18096S   19111.73466535  .00000673  00000-0  27944-4 0  9994
2 43735  97.4642 181.9407 0022151 178.2937 181.8381 15.27183994 21916
Source of the keplerian elements: AFSPC